| time (UTC) | temp C | wind direction | speed KPH | gust KPH | rain 1hr cm | rain 24hr cm | rain mn cm | humidity % | barometer mb |
| 20260505214010 | 16 | 146 | 1.6 | 11.3 | 0.00 | 0.05 | 0.05 | 86 | 1007.6 |
| 20260505213503 | 16 | 137 | 3.2 | 12.9 | 0.00 | 0.05 | 0.05 | 86 | 1007.5 |
| 20260505213006 | 16 | 134 | 4.8 | 22.5 | 0.00 | 0.05 | 0.05 | 85 | 1007.5 |
| 20260505212504 | 16 | 110 | 4.8 | 22.5 | 0.00 | 0.05 | 0.05 | 85 | 1007.5 |
| 20260505212004 | 16 | 104 | 9.7 | 19.3 | 0.00 | 0.05 | 0.05 | 85 | 1007.5 |
| 20260505211510 | 16 | 99 | 12.9 | 19.3 | 0.03 | 0.05 | 0.05 | 85 | 1007.5 |
| 20260505211005 | 16 | 76 | 8.0 | 16.1 | 0.03 | 0.05 | 0.05 | 85 | 1007.4 |
| 20260505210504 | 16 | 98 | 6.4 | 19.3 | 0.05 | 0.05 | 0.05 | 86 | 1007.5 |
| 20260505210017 | 16 | 63 | 9.7 | 22.5 | 0.05 | 0.05 | 0.05 | 86 | 1007.5 |
| 20260505205507 | 16 | 53 | 9.7 | 22.5 | 0.05 | 0.05 | 0.05 | 85 | 1007.5 |
| 20260505205008 | 16 | 109 | 9.7 | 22.5 | 0.05 | 0.05 | 0.05 | 86 | 1007.5 |
| 20260505204523 | 16 | 116 | 11.3 | 25.7 | 0.05 | 0.05 | 0.05 | 85 | 1007.5 |
| 20260505204002 | 16 | 39 | 9.7 | 25.7 | 0.05 | 0.05 | 0.05 | 86 | 1007.5 |
| 20260505203506 | 16 | 56 | 11.3 | 20.9 | 0.05 | 0.05 | 0.05 | 87 | 1007.5 |
| 20260505203024 | 16 | 75 | 16.1 | 20.9 | 0.05 | 0.05 | 0.05 | 86 | 1007.5 |
| 20260505202508 | 16 | 20 | 11.3 | 20.9 | 0.05 | 0.05 | 0.05 | 84 | 1007.6 |
| 20260505202004 | 16 | 28 | 8.0 | 20.9 | 0.05 | 0.05 | 0.05 | 83 | 1007.7 |
| 20260505201518 | 17 | 103 | 9.7 | 24.1 | 0.03 | 0.03 | 0.03 | 80 | 1007.8 |
| 20260505201004 | 17 | 75 | 14.5 | 24.1 | 0.03 | 0.03 | 0.03 | 77 | 1007.8 |
| 20260505200501 | 18 | 58 | 9.7 | 22.5 | 0.00 | 0.00 | 0.00 | 74 | 1007.8 |
| 20260505200012 | 18 | 50 | 14.5 | 22.5 | 0.00 | 0.00 | 0.00 | 70 | 1007.6 |
| 20260505195507 | 18 | 45 | 9.7 | 19.3 | 0.00 | 0.00 | 0.00 | 70 | 1007.5 |
| 20260505195007 | 18 | 23 | 8.0 | 17.7 | 0.00 | 0.00 | 0.00 | 68 | 1007.6 |
| 20260505194519 | 19 | 148 | 11.3 | 20.9 | 0.00 | 0.00 | 0.00 | 67 | 1007.6 |
| 20260505194011 | 19 | 84 | 11.3 | 20.9 | 0.00 | 0.00 | 0.00 | 67 | 1007.6 |
| 20260505193508 | 19 | 102 | 8.0 | 17.7 | 0.00 | 0.00 | 0.00 | 67 | 1007.6 |
| 20260505193033 | 19 | 91 | 9.7 | 16.1 | 0.00 | 0.00 | 0.00 | 67 | 1007.7 |
| 20260505192506 | 19 | 61 | 8.0 | 19.3 | 0.00 | 0.00 | 0.00 | 69 | 1007.6 |
| 20260505192008 | 19 | 94 | 8.0 | 20.9 | 0.00 | 0.00 | 0.00 | 69 | 1007.7 |
| 20260505191526 | 18 | 90 | 11.3 | 20.9 | 0.00 | 0.00 | 0.00 | 68 | 1007.7 |
| 20260505191009 | 18 | 102 | 9.7 | 19.3 | 0.00 | 0.00 | 0.00 | 68 | 1007.7 |
| 20260505190506 | 18 | 93 | 11.3 | 17.7 | 0.00 | 0.00 | 0.00 | 69 | 1007.8 |
| 20260505190025 | 18 | 134 | 4.8 | 17.7 | 0.00 | 0.00 | 0.00 | 70 | 1007.9 |
| 20260505185502 | 18 | 57 | 6.4 | 22.5 | 0.00 | 0.00 | 0.00 | 69 | 1008.1 |
| 20260505185003 | 18 | 84 | 11.3 | 22.5 | 0.00 | 0.00 | 0.00 | 69 | 1008.2 |
| 20260505184515 | 18 | 115 | 8.0 | 20.9 | 0.00 | 0.00 | 0.00 | 70 | 1008.2 |
| 20260505184006 | 18 | 90 | 12.9 | 27.4 | 0.00 | 0.00 | 0.00 | 69 | 1008.2 |
| 20260505183507 | 18 | 103 | 14.5 | 27.4 | 0.00 | 0.00 | 0.00 | 69 | 1008.4 |
| 20260505183019 | 18 | 94 | 11.3 | 25.7 | 0.00 | 0.00 | 0.00 | 69 | 1008.6 |
| 20260505182506 | 18 | 72 | 14.5 | 33.8 | 0.00 | 0.00 | 0.00 | 68 | 1008.7 |
| 20260505182002 | 18 | 126 | 16.1 | 33.8 | 0.00 | 0.00 | 0.00 | 69 | 1008.6 |
| 20260505181504 | 18 | 103 | 16.1 | 37.0 | 0.00 | 0.00 | 0.00 | 68 | 1008.5 |
| 20260505181003 | 18 | 67 | 20.9 | 37.0 | 0.00 | 0.00 | 0.00 | 67 | 1008.4 |
| 20260505180504 | 18 | 47 | 19.3 | 38.6 | 0.00 | 0.00 | 0.00 | 67 | 1008.3 |
| 20260505180008 | 18 | 33 | 22.5 | 38.6 | 0.00 | 0.00 | 0.00 | 67 | 1008.2 |
| 20260505175503 | 19 | 88 | 17.7 | 33.8 | 0.00 | 0.00 | 0.00 | 67 | 1008.2 |
| 20260505175003 | 19 | 59 | 16.1 | 37.0 | 0.00 | 0.00 | 0.00 | 66 | 1008.0 |
| 20260505174508 | 19 | 34 | 14.5 | 37.0 | 0.00 | 0.00 | 0.00 | 67 | 1008.0 |
| 20260505174006 | 19 | 140 | 16.1 | 37.0 | 0.00 | 0.00 | 0.00 | 66 | 1007.9 |
| 20260505173506 | 20 | 60 | 16.1 | 37.0 | 0.00 | 0.00 | 0.00 | 66 | 1008.0 |
| 20260505173002 | 19 | 37 | 24.1 | 37.0 | 0.00 | 0.00 | 0.00 | 66 | 1007.9 |
| 20260505172504 | 19 | 36 | 19.3 | 40.2 | 0.00 | 0.00 | 0.00 | 65 | 1007.9 |
| 20260505172003 | 19 | 55 | 22.5 | 40.2 | 0.00 | 0.00 | 0.00 | 65 | 1008.0 |
| 20260505171503 | 19 | 55 | 25.7 | 40.2 | 0.00 | 0.00 | 0.00 | 65 | 1007.9 |
| 20260505171003 | 20 | 69 | 14.5 | 38.6 | 0.00 | 0.00 | 0.00 | 65 | 1008.0 |
| 20260505170502 | 20 | 103 | 19.3 | 38.6 | 0.00 | 0.00 | 0.00 | 64 | 1007.8 |
| 20260505170004 | 20 | 104 | 16.1 | 32.2 | 0.00 | 0.00 | 0.00 | 65 | 1007.8 |
| 20260505165503 | 20 | 100 | 11.3 | 40.2 | 0.00 | 0.00 | 0.00 | 65 | 1007.9 |
| 20260505165004 | 20 | 46 | 22.5 | 40.2 | 0.00 | 0.00 | 0.00 | 65 | 1008.0 |
| 20260505164508 | 20 | 73 | 16.1 | 38.6 | 0.00 | 0.00 | 0.00 | 64 | 1008.0 |
| 20260505164004 | 20 | 37 | 9.7 | 33.8 | 0.00 | 0.00 | 0.00 | 64 | 1008.0 |
| 20260505163504 | 20 | 115 | 16.1 | 33.8 | 0.00 | 0.00 | 0.00 | 65 | 1007.9 |
| 20260505163011 | 20 | 67 | 22.5 | 33.8 | 0.00 | 0.00 | 0.00 | 63 | 1007.9 |
| 20260505162507 | 20 | 89 | 19.3 | 32.2 | 0.00 | 0.00 | 0.00 | 63 | 1008.0 |
| 20260505162002 | 20 | 101 | 14.5 | 27.4 | 0.00 | 0.00 | 0.00 | 63 | 1007.9 |
| 20260505161506 | 21 | 85 | 16.1 | 27.4 | 0.00 | 0.00 | 0.00 | 63 | 1007.8 |
| 20260505161009 | 20 | 58 | 16.1 | 32.2 | 0.00 | 0.00 | 0.00 | 64 | 1007.8 |
| 20260505160505 | 20 | 9 | 17.7 | 32.2 | 0.00 | 0.00 | 0.00 | 63 | 1007.6 |
| 20260505153012 | 20 | 89 | 14.5 | 30.6 | 0.00 | 0.00 | 0.00 | 68 | 1007.6 |
| 20260505152504 | 20 | 74 | 14.5 | 29.0 | 0.00 | 0.00 | 0.00 | 67 | 1007.5 |
| 20260505152005 | 20 | 83 | 17.7 | 29.0 | 0.00 | 0.00 | 0.00 | 66 | 1007.6 |
| 20260505151516 | 20 | 63 | 16.1 | 37.0 | 0.00 | 0.00 | 0.00 | 69 | 1007.4 |
| 20260505151007 | 20 | 53 | 14.5 | 37.0 | 0.00 | 0.00 | 0.00 | 67 | 1007.5 |
| 20260505150503 | 19 | 26 | 19.3 | 29.0 | 0.00 | 0.00 | 0.00 | 69 | 1007.4 |
| 20260505140505 | 17 | 33 | 14.5 | 29.0 | 0.00 | 0.00 | 0.00 | 74 | 1007.5 |
| 20260505125007 | 15 | 61 | 6.4 | 16.1 | 0.00 | 0.00 | 0.00 | 77 | 1007.1 |
| 20260505124533 | 15 | 327 | 6.4 | 14.5 | 0.00 | 0.00 | 0.00 | 76 | 1007.0 |
| 20260505124008 | 15 | 42 | 6.4 | 14.5 | 0.00 | 0.00 | 0.00 | 77 | 1006.9 |
| 20260505123507 | 15 | 348 | 8.0 | 14.5 | 0.00 | 0.00 | 0.00 | 77 | 1006.8 |
| 20260505123022 | 15 | 14 | 3.2 | 14.5 | 0.00 | 0.00 | 0.00 | 76 | 1006.9 |
| 20260505122507 | 15 | 34 | 6.4 | 14.5 | 0.00 | 0.00 | 0.00 | 76 | 1006.9 |
| 20260505122010 | 15 | 34 | 4.8 | 11.3 | 0.00 | 0.00 | 0.00 | 76 | 1006.8 |
| 20260505121519 | 15 | 17 | 3.2 | 11.3 | 0.00 | 0.00 | 0.00 | 76 | 1006.7 |
| 20260505121007 | 15 | 24 | 6.4 | 14.5 | 0.00 | 0.00 | 0.00 | 76 | 1006.7 |
| 20260505120504 | 15 | 16 | 4.8 | 14.5 | 0.00 | 0.00 | 0.00 | 75 | 1006.9 |
| 20260505120012 | 15 | 31 | 4.8 | 12.9 | 0.00 | 0.00 | 0.00 | 75 | 1006.9 |
| 20260505115506 | 15 | 32 | 4.8 | 12.9 | 0.00 | 0.00 | 0.00 | 75 | 1006.9 |
| 20260505115006 | 16 | 42 | 4.8 | 11.3 | 0.00 | 0.00 | 0.00 | 74 | 1007.0 |
| 20260505114512 | 16 | 44 | 4.8 | 14.5 | 0.00 | 0.00 | 0.00 | 74 | 1007.0 |
| 20260505114007 | 16 | 57 | 4.8 | 14.5 | 0.00 | 0.00 | 0.00 | 74 | 1007.0 |
| 20260505113507 | 16 | 23 | 6.4 | 14.5 | 0.00 | 0.00 | 0.00 | 73 | 1007.0 |
| 20260505113023 | 16 | 11 | 3.2 | 19.3 | 0.00 | 0.00 | 0.00 | 73 | 1006.8 |
| 20260505112506 | 16 | 58 | 9.7 | 19.3 | 0.00 | 0.00 | 0.00 | 73 | 1006.8 |
| 20260505112006 | 16 | 52 | 8.0 | 25.7 | 0.00 | 0.00 | 0.00 | 73 | 1006.7 |
| 20260505111526 | 16 | 42 | 14.5 | 25.7 | 0.00 | 0.00 | 0.00 | 73 | 1006.7 |
| 20260505111015 | 16 | 76 | 9.7 | 20.9 | 0.00 | 0.00 | 0.00 | 73 | 1006.7 |
| 20260505110506 | 16 | 58 | 9.7 | 20.9 | 0.00 | 0.00 | 0.00 | 72 | 1006.6 |
| 20260505102009 | 16 | 67 | 14.5 | 32.2 | 0.00 | 0.00 | 0.00 | 73 | 1006.2 |
| 20260505101528 | 16 | 39 | 14.5 | 32.2 | 0.00 | 0.00 | 0.00 | 73 | 1006.2 |
| 20260505101007 | 15 | 24 | 9.7 | 22.5 | 0.00 | 0.00 | 0.00 | 74 | 1006.2 |
| 20260505100508 | 15 | 45 | 9.7 | 27.4 | 0.00 | 0.00 | 0.00 | 74 | 1006.2 |
| 20260505100026 | 16 | 61 | 12.9 | 27.4 | 0.00 | 0.00 | 0.00 | 73 | 1006.1 |
| 20260505095506 | 16 | 80 | 8.0 | 20.9 | 0.00 | 0.00 | 0.00 | 73 | 1006.2 |
| 20260505095010 | 16 | 50 | 9.7 | 29.0 | 0.00 | 0.00 | 0.00 | 73 | 1006.1 |
| 20260505094531 | 16 | 46 | 12.9 | 29.0 | 0.00 | 0.00 | 0.00 | 73 | 1005.9 |
| 20260505094010 | 16 | 66 | 11.3 | 24.1 | 0.00 | 0.00 | 0.00 | 72 | 1006.0 |
| 20260505093507 | 16 | 51 | 12.9 | 32.2 | 0.00 | 0.00 | 0.00 | 72 | 1005.9 |
| 20260505093020 | 16 | 65 | 17.7 | 32.2 | 0.00 | 0.00 | 0.00 | 72 | 1005.8 |
| 20260505092508 | 16 | 59 | 9.7 | 22.5 | 0.00 | 0.00 | 0.00 | 72 | 1005.7 |
| 20260505092005 | 16 | 49 | 11.3 | 22.5 | 0.00 | 0.00 | 0.00 | 72 | 1005.7 |
| 20260505091503 | 16 | 42 | 9.7 | 24.1 | 0.00 | 0.00 | 0.00 | 72 | 1005.7 |
| 20260505091004 | 16 | 69 | 11.3 | 30.6 | 0.00 | 0.00 | 0.00 | 71 | 1005.6 |
| 20260505090503 | 16 | 49 | 14.5 | 37.0 | 0.00 | 0.00 | 0.00 | 71 | 1005.4 |
| 20260505090005 | 16 | 66 | 16.1 | 37.0 | 0.00 | 0.00 | 0.00 | 71 | 1005.4 |
| 20260505085504 | 16 | 70 | 19.3 | 32.2 | 0.00 | 0.00 | 0.00 | 71 | 1005.4 |
| 20260505085003 | 16 | 63 | 14.5 | 37.0 | 0.00 | 0.00 | 0.00 | 72 | 1005.3 |
| 20260505084525 | 16 | 78 | 17.7 | 37.0 | 0.00 | 0.00 | 0.00 | 72 | 1005.3 |
| 20260505084002 | 16 | 71 | 11.3 | 37.0 | 0.00 | 0.00 | 0.00 | 72 | 1005.3 |
| 20260505083503 | 16 | 61 | 17.7 | 37.0 | 0.00 | 0.00 | 0.00 | 71 | 1005.3 |
| 20260505083007 | 16 | 71 | 17.7 | 32.2 | 0.00 | 0.00 | 0.00 | 73 | 1005.3 |
| 20260505082505 | 16 | 55 | 16.1 | 32.2 | 0.00 | 0.00 | 0.00 | 73 | 1005.2 |
| 20260505082002 | 16 | 19 | 12.9 | 25.7 | 0.00 | 0.00 | 0.00 | 73 | 1005.1 |
| 20260505081515 | 16 | 53 | 14.5 | 25.7 | 0.00 | 0.00 | 0.00 | 73 | 1005.1 |
| 20260505081004 | 16 | 46 | 11.3 | 22.5 | 0.00 | 0.00 | 0.00 | 73 | 1005.0 |
| 20260505080503 | 16 | 57 | 11.3 | 22.5 | 0.00 | 0.00 | 0.00 | 73 | 1004.9 |
| 20260505080009 | 16 | 62 | 12.9 | 22.5 | 0.00 | 0.00 | 0.00 | 73 | 1004.9 |
| 20260505075504 | 16 | 33 | 12.9 | 22.5 | 0.00 | 0.00 | 0.00 | 73 | 1004.9 |
| 20260505075003 | 16 | 19 | 11.3 | 22.5 | 0.00 | 0.00 | 0.00 | 73 | 1004.9 |
| 20260505074508 | 16 | 57 | 14.5 | 22.5 | 0.00 | 0.00 | 0.00 | 71 | 1004.8 |
| 20260505074004 | 16 | 49 | 12.9 | 24.1 | 0.00 | 0.00 | 0.00 | 71 | 1004.7 |
| 20260505073503 | 16 | 50 | 11.3 | 24.1 | 0.00 | 0.00 | 0.00 | 70 | 1004.7 |
| 20260505073008 | 16 | 42 | 9.7 | 24.1 | 0.00 | 0.00 | 0.00 | 70 | 1004.6 |
| 20260505072506 | 16 | 78 | 12.9 | 24.1 | 0.00 | 0.00 | 0.00 | 70 | 1004.6 |
| 20260505072008 | 16 | 32 | 12.9 | 24.1 | 0.00 | 0.00 | 0.00 | 70 | 1004.6 |
| 20260505071508 | 16 | 82 | 9.7 | 20.9 | 0.00 | 0.00 | 0.00 | 70 | 1004.6 |
| 20260505071004 | 16 | 69 | 12.9 | 20.9 | 0.00 | 0.00 | 0.00 | 70 | 1004.6 |
| 20260505070504 | 17 | 77 | 11.3 | 25.7 | 0.00 | 0.00 | 0.00 | 70 | 1004.6 |
| 20260505070012 | 17 | 37 | 12.9 | 25.7 | 0.00 | 0.00 | 0.00 | 70 | 1004.6 |
| 20260505065506 | 17 | 48 | 14.5 | 22.5 | 0.00 | 0.00 | 0.00 | 70 | 1004.7 |
| 20260505065004 | 17 | 63 | 11.3 | 22.5 | 0.00 | 0.00 | 0.00 | 69 | 1004.7 |
| 20260505064512 | 17 | 53 | 12.9 | 22.5 | 0.00 | 0.00 | 0.00 | 69 | 1004.8 |
| 20260505064009 | 17 | 54 | 11.3 | 24.1 | 0.00 | 0.00 | 0.00 | 70 | 1004.8 |
| 20260505063504 | 17 | 52 | 9.7 | 25.7 | 0.00 | 0.00 | 0.00 | 69 | 1004.9 |
| 20260505063010 | 17 | 76 | 14.5 | 25.7 | 0.00 | 0.00 | 0.00 | 69 | 1004.9 |
| 20260505062505 | 17 | 59 | 12.9 | 25.7 | 0.00 | 0.00 | 0.00 | 69 | 1004.9 |
| 20260505062005 | 17 | 19 | 12.9 | 29.0 | 0.00 | 0.00 | 0.00 | 69 | 1004.9 |
| 20260505061518 | 17 | 71 | 9.7 | 29.0 | 0.00 | 0.00 | 0.00 | 70 | 1005.0 |
| 20260505061004 | 17 | 65 | 14.5 | 24.1 | 0.00 | 0.00 | 0.00 | 69 | 1005.0 |
| 20260505060507 | 17 | 24 | 12.9 | 24.1 | 0.00 | 0.00 | 0.00 | 69 | 1005.1 |
| 20260505060010 | 17 | 36 | 9.7 | 22.5 | 0.00 | 0.00 | 0.00 | 69 | 1005.1 |
| 20260505055503 | 17 | 22 | 8.0 | 22.5 | 0.00 | 0.00 | 0.00 | 69 | 1005.1 |
| 20260505055005 | 17 | 57 | 12.9 | 24.1 | 0.00 | 0.00 | 0.00 | 69 | 1005.2 |
| 20260505054517 | 17 | 15 | 16.1 | 24.1 | 0.00 | 0.00 | 0.00 | 68 | 1005.4 |
| 20260505054010 | 17 | 38 | 11.3 | 24.1 | 0.00 | 0.00 | 0.00 | 68 | 1005.4 |
| 20260505053502 | 17 | 22 | 12.9 | 24.1 | 0.00 | 0.00 | 0.00 | 68 | 1005.5 |
| 20260505053012 | 17 | 40 | 11.3 | 22.5 | 0.00 | 0.00 | 0.00 | 68 | 1005.5 |
| 20260505052503 | 17 | 63 | 9.7 | 24.1 | 0.00 | 0.00 | 0.00 | 68 | 1005.6 |
| 20260505052006 | 17 | 32 | 9.7 | 24.1 | 0.00 | 0.00 | 0.00 | 68 | 1005.5 |
| 20260505051517 | 17 | 51 | 12.9 | 25.7 | 0.00 | 0.00 | 0.00 | 68 | 1005.6 |
| 20260505051003 | 17 | 39 | 11.3 | 25.7 | 0.00 | 0.00 | 0.00 | 68 | 1005.7 |
| 20260505050506 | 17 | 40 | 9.7 | 25.7 | 0.00 | 0.00 | 0.00 | 68 | 1005.7 |
| 20260505041518 | 17 | 13 | 12.9 | 22.5 | 0.00 | 0.00 | 0.00 | 70 | 1005.8 |
| 20260505041006 | 17 | 17 | 9.7 | 22.5 | 0.00 | 0.00 | 0.00 | 69 | 1005.8 |
| 20260505040508 | 17 | 29 | 11.3 | 24.1 | 0.00 | 0.00 | 0.00 | 69 | 1005.9 |
| 20260505040016 | 17 | 23 | 9.7 | 24.1 | 0.00 | 0.00 | 0.00 | 69 | 1005.9 |
| 20260505035507 | 17 | 49 | 9.7 | 19.3 | 0.00 | 0.00 | 0.00 | 69 | 1006.0 |
| 20260505035006 | 17 | 47 | 8.0 | 20.9 | 0.00 | 0.00 | 0.00 | 69 | 1006.1 |
| 20260505034524 | 17 | 78 | 11.3 | 22.5 | 0.00 | 0.00 | 0.00 | 69 | 1006.0 |
| 20260505034008 | 17 | 44 | 9.7 | 27.4 | 0.00 | 0.00 | 0.00 | 69 | 1006.0 |
| 20260505033511 | 16 | 22 | 9.7 | 27.4 | 0.00 | 0.00 | 0.00 | 70 | 1005.9 |
| 20260505033016 | 16 | 67 | 11.3 | 22.5 | 0.00 | 0.00 | 0.00 | 70 | 1005.9 |
| 20260505032507 | 16 | 355 | 6.4 | 14.5 | 0.00 | 0.00 | 0.00 | 70 | 1005.9 |
| 20260505032008 | 16 | 19 | 4.8 | 16.1 | 0.00 | 0.00 | 0.00 | 70 | 1005.8 |
| 20260505031518 | 16 | 41 | 6.4 | 16.1 | 0.00 | 0.00 | 0.00 | 69 | 1005.9 |
| 20260505031007 | 16 | 26 | 4.8 | 17.7 | 0.00 | 0.00 | 0.00 | 69 | 1005.9 |
| 20260505030506 | 16 | 24 | 9.7 | 17.7 | 0.00 | 0.00 | 0.00 | 69 | 1006.0 |
| 20260505030024 | 16 | 32 | 6.4 | 17.7 | 0.00 | 0.00 | 0.00 | 69 | 1006.1 |
| 20260505025507 | 17 | 49 | 8.0 | 17.7 | 0.00 | 0.00 | 0.00 | 68 | 1006.1 |
| 20260505025007 | 17 | 54 | 8.0 | 17.7 | 0.00 | 0.00 | 0.00 | 68 | 1006.1 |
| 20260505024521 | 17 | 53 | 6.4 | 17.7 | 0.00 | 0.00 | 0.00 | 68 | 1006.1 |
| 20260505024002 | 17 | 30 | 6.4 | 17.7 | 0.00 | 0.00 | 0.00 | 68 | 1006.0 |
| 20260505023501 | 17 | 34 | 8.0 | 17.7 | 0.00 | 0.00 | 0.00 | 68 | 1006.1 |
| 20260505023005 | 17 | 49 | 8.0 | 17.7 | 0.00 | 0.00 | 0.00 | 68 | 1006.1 |
| 20260505022502 | 17 | 355 | 6.4 | 19.3 | 0.00 | 0.00 | 0.00 | 68 | 1006.1 |
| 20260505022004 | 17 | 11 | 9.7 | 19.3 | 0.00 | 0.00 | 0.00 | 68 | 1006.3 |
| 20260505021504 | 17 | 28 | 4.8 | 14.5 | 0.00 | 0.00 | 0.00 | 67 | 1006.2 |
| 20260505021003 | 17 | 15 | 4.8 | 14.5 | 0.00 | 0.00 | 0.00 | 67 | 1006.3 |
| 20260505020504 | 17 | 5 | 4.8 | 14.5 | 0.00 | 0.00 | 0.00 | 67 | 1006.3 |
| 20260505020012 | 17 | 17 | 6.4 | 17.7 | 0.00 | 0.00 | 0.00 | 67 | 1006.2 |
| 20260505015504 | 17 | 15 | 8.0 | 17.7 | 0.00 | 0.00 | 0.00 | 66 | 1006.3 |
| 20260505015004 | 17 | 22 | 8.0 | 17.7 | 0.00 | 0.00 | 0.00 | 66 | 1006.2 |
| 20260505014513 | 17 | 42 | 4.8 | 22.5 | 0.00 | 0.00 | 0.00 | 66 | 1006.2 |
| 20260505014002 | 17 | 55 | 9.7 | 22.5 | 0.00 | 0.00 | 0.00 | 65 | 1006.2 |
| 20260505013502 | 17 | 51 | 8.0 | 22.5 | 0.00 | 0.00 | 0.00 | 65 | 1006.2 |
| 20260505013004 | 17 | 28 | 8.0 | 22.5 | 0.00 | 0.00 | 0.00 | 65 | 1006.1 |
| 20260505012502 | 18 | 57 | 12.9 | 22.5 | 0.00 | 0.00 | 0.00 | 64 | 1006.1 |
| 20260505012003 | 18 | 55 | 8.0 | 22.5 | 0.00 | 0.00 | 0.00 | 64 | 1006.1 |
| 20260505011504 | 18 | 66 | 9.7 | 24.1 | 0.00 | 0.00 | 0.00 | 64 | 1006.1 |
| 20260505011004 | 18 | 24 | 14.5 | 24.1 | 0.00 | 0.00 | 0.00 | 63 | 1006.0 |
| 20260505010503 | 18 | 49 | 6.4 | 20.9 | 0.00 | 0.00 | 0.00 | 62 | 1005.8 |
| 20260505010012 | 18 | 75 | 11.3 | 24.1 | 0.00 | 0.00 | 0.00 | 62 | 1005.7 |
| 20260505005504 | 18 | 78 | 9.7 | 29.0 | 0.00 | 0.00 | 0.00 | 62 | 1005.7 |
| 20260505005004 | 18 | 39 | 14.5 | 30.6 | 0.00 | 0.00 | 0.00 | 62 | 1005.7 |
| 20260505004503 | 18 | 58 | 17.7 | 30.6 | 0.00 | 0.00 | 0.00 | 61 | 1005.7 |
| 20260505004003 | 18 | 63 | 12.9 | 32.2 | 0.00 | 0.00 | 0.00 | 61 | 1005.7 |
| 20260505003503 | 19 | 28 | 12.9 | 32.2 | 0.00 | 0.00 | 0.00 | 61 | 1005.6 |
| 20260505003012 | 19 | 38 | 14.5 | 30.6 | 0.00 | 0.00 | 0.00 | 60 | 1005.5 |
| 20260505002503 | 19 | 63 | 12.9 | 25.7 | 0.00 | 0.00 | 0.00 | 60 | 1005.4 |
| 20260505002005 | 19 | 65 | 16.1 | 27.4 | 0.00 | 0.00 | 0.00 | 60 | 1005.4 |
| 20260505001508 | 19 | 13 | 14.5 | 27.4 | 0.00 | 0.00 | 0.00 | 60 | 1005.2 |
| 20260505001005 | 19 | 32 | 11.3 | 25.7 | 0.00 | 0.00 | 0.00 | 60 | 1005.2 |
| 20260505000505 | 19 | 22 | 12.9 | 22.5 | 0.00 | 0.00 | 0.00 | 59 | 1005.2 |
| 20260505000014 | 19 | 22 | 14.5 | 22.5 | 0.00 | 0.00 | 0.00 | 59 | 1005.1 |
| 20260504235503 | 20 | 15 | 11.3 | 25.7 | 0.00 | 0.00 | 0.00 | 58 | 1005.1 |
| 20260504235003 | 20 | 14 | 11.3 | 29.0 | 0.00 | 0.00 | 0.00 | 58 | 1005.0 |
| 20260504234504 | 20 | 70 | 12.9 | 29.0 | 0.00 | 0.00 | 0.00 | 57 | 1005.0 |
| 20260504234003 | 20 | 20 | 12.9 | 30.6 | 0.00 | 0.00 | 0.00 | 57 | 1005.0 |
| 20260504233503 | 20 | 57 | 16.1 | 30.6 | 0.00 | 0.00 | 0.00 | 57 | 1005.0 |
| 20260504233005 | 20 | 72 | 12.9 | 29.0 | 0.00 | 0.00 | 0.00 | 56 | 1005.0 |
| 20260504232503 | 21 | 55 | 12.9 | 27.4 | 0.00 | 0.00 | 0.00 | 56 | 1005.0 |
| 20260504232004 | 21 | 61 | 16.1 | 25.7 | 0.00 | 0.00 | 0.00 | 55 | 1005.1 |
| 20260504231520 | 21 | 71 | 14.5 | 27.4 | 0.00 | 0.00 | 0.00 | 55 | 1005.0 |
| 20260504231003 | 21 | 61 | 16.1 | 35.4 | 0.00 | 0.00 | 0.00 | 56 | 1005.0 |
| 20260504230503 | 21 | 68 | 16.1 | 37.0 | 0.00 | 0.00 | 0.00 | 56 | 1005.1 |
| 20260504230006 | 21 | 25 | 14.5 | 40.2 | 0.00 | 0.00 | 0.00 | 56 | 1005.0 |
| 20260504225502 | 21 | 65 | 22.5 | 40.2 | 0.00 | 0.00 | 0.00 | 56 | 1005.1 |
| 20260504225003 | 21 | 61 | 16.1 | 38.6 | 0.00 | 0.00 | 0.00 | 57 | 1005.1 |
| 20260504224510 | 21 | 5 | 22.5 | 38.6 | 0.00 | 0.00 | 0.00 | 57 | 1005.2 |
| 20260504224004 | 21 | 69 | 16.1 | 35.4 | 0.00 | 0.00 | 0.00 | 57 | 1005.2 |
| 20260504223504 | 21 | 49 | 16.1 | 35.4 | 0.00 | 0.00 | 0.00 | 56 | 1005.3 |
| 20260504223011 | 21 | 26 | 16.1 | 35.4 | 0.00 | 0.00 | 0.00 | 56 | 1005.3 |
| 20260504222504 | 21 | 55 | 20.9 | 37.0 | 0.00 | 0.00 | 0.00 | 56 | 1005.2 |
| 20260504222005 | 21 | 94 | 14.5 | 37.0 | 0.00 | 0.00 | 0.00 | 57 | 1005.3 |
| 20260504221508 | 21 | 53 | 20.9 | 37.0 | 0.00 | 0.00 | 0.00 | 55 | 1005.4 |
| 20260504221006 | 21 | 63 | 19.3 | 38.6 | 0.00 | 0.00 | 0.00 | 55 | 1005.5 |
| 20260504220507 | 22 | 56 | 24.1 | 38.6 | 0.00 | 0.00 | 0.00 | 54 | 1005.5 |
| 20260504220004 | 22 | 76 | 17.7 | 30.6 | 0.00 | 0.00 | 0.00 | 55 | 1005.5 |
| 20260504215505 | 22 | 41 | 19.3 | 38.6 | 0.00 | 0.00 | 0.00 | 56 | 1005.4 |
| 20260504215004 | 22 | 53 | 12.9 | 38.6 | 0.00 | 0.00 | 0.00 | 56 | 1005.4 |
| 20260504214508 | 22 | 79 | 16.1 | 30.6 | 0.00 | 0.00 | 0.00 | 55 | 1005.4 |